EHI
0 0 0 0 0 0 0 0 0 0 0 0 0 0 0 0 0 0 0 0 0 0 0 0 0 0 0 0 0 0 0 0 0 0 0 0 0 0 0 0 0 0 0
0 0 0 0 0 0 0 0 0 0 0 0 0 0 0 0 0 0 0 0 0 0 0 0 0 0 0 0 0 0 0 0 0 0 0 0 0 0 0 0 0 0 0
0 0 0 0 0 0 0 0 0 0 0 0 0 0 0 0 0 0 0 0 0 0 0 0 0 0 0 0 0 0 0 0 0 0 0 0 0 0 0 0 0 0 0
0 0 0 0 0 0 0 0 0 0 0 0 0 0 0 0 0 0 0 0 0 0 0 0 0 0 0 0 0 0 0 0 0 0 0 0 0 0 0 0 0 0 0
0 0 0 0 0 0 0 0 0 0 0 0 0 0 0 0 0 0 0 0 0 0 0 0 0 0 0 0 0 0 0 0 0 0 0 0 0 0 0 0 0 0 0
0 0 0 0 0 0 0 0 0 0 0 0 0 0 0 0 0 0 0 0 0 0 0 0 0 0 0 0 0 0 0 0 0 0 0 0 0 0 0 0 0 0 0
0 0 0 0 0 0 0 0 0 0 0 0 0 0 0 0 0 0 0 0 0 0 0 0 0 0 0 0 0 0 0 0 0 0 0 0 0 0 0 0 0 0 0
0 0 0 0 0 0 0 0 0 0 0 0 0 0 0 0 0 0 0 0 0 0 0 0 0 0 0 0 0 0 0 0 0 0 0 0 0 0 1 2 3 1 0
0 0 0 0 0 0 0 0 0 0 0 0 0 0 0 0 0 0 0 0 0 0 0 0 0 0 0 0 0 0 0 0 0 0 0 0 0 0 1 5 9 6 2
0 0 0 0 0 0 0 0 0 0 0 0 0 0 0 0 0 0 0 0 0 0 0 0 0 0 0 0 0 0 0 0 0 0 0 0 0 0 0 7 16 16 11
0 0 0 0 0 0 0 0 0 0 0 0 0 0 0 0 0 0 0 0 0 0 0 0 0 0 0 0 0 0 0 0 0 0 0 0 0 0 0 5 13 18 16
0 0 0 0 0 0 0 0 0 0 0 0 0 0 0 0 0 0 0 0 0 0 0 0 0 0 0 0 0 0 0 0 0 0 0 0 0 0 0 1 5 7 8
0 0 0 0 0 0 0 0 0 0 0 0 0 0 0 0 0 0 0 0 0 0 0 0 0 0 0 0 0 0 0 0 0 0 0 0 0 0 0 0 0 0 1
0 0 0 0 0 0 0 0 0 0 0 0 0 0 0 0 0 0 0 0 0 0 0 0 0 0 0 0 0 0 0 0 0 0 0 0 0 0 0 0 0 0 0
0 0 0 0 0 0 0 0 0 0 0 0 0 0 0 0 0 0 0 0 0 0 0 0 0 0 0 0 0 0 0 0 0 0 0 0 0 0 0 0 0 0 0
0 0 0 0 0 0 0 0 0 0 0 0 0 0 0 0 0 0 0 0 0 0 0 0 0 0 0 0 0 0 0 0 0 0 0 0 0 0 0 0 0 0 0
0 0 0 0 0 0 0 0 0 0 0 0 0 0 0 0 0 0 0 0 0 0 0 0 0 0 0 0 0 0 0 0 0 0 0 0 0 0 0 0 0 0 0
0 0 0 0 0 0 0 0 0 0 0 0 0 0 0 0 0 0 0 0 0 0 0 0 0 0 0 0 0 0 0 0 0 0 0 0 0 0 0 0 0 0 0
0 0 0 0 0 0 0 0 0 0 0 0 0 0 0 0 0 0 0 0 0 0 0 0 0 0 0 0 0 0 0 0 0 0 0 0 0 0 0 0 0 0 0
0 0 0 0 0 0 0 0 0 0 0 0 0 0 0 0 0 0 0 0 0 0 0 0 0 0 0 0 0 0 0 0 0 0 0 0 0 0 0 0 0 0 0
0 0 0 0 0 0 0 0 0 0 0 0 0 0 0 0 0 0 0 0 0 0 0 0 0 0 0 0 0 0 0 0 0 0 0 0 0 0 0 0 0 0 0
0 0 0 0 0 0 0 0 0 0 0 0 0 0 0 0 0 0 0 0 0 0 0 0 0 0 0 0 0 0 0 0 0 0 0 0 0 0 0 0 0 0 0
0 0 0 0 0 0 0 0 0 0 0 0 0 0 0 0 0 0 0 0 0 0 0 0 0 0 0 0 0 0 0 0 0 0 0 0 0 0 0 0 0 0 0
0 0 0 0 0 0 0 0 0 0 0 0 0 0 0 0 0 0 0 0 0 0 0 0 0 0 0 0 0 0 0 0 0 0 0 0 0 0 0 0 0 0 0
0 0 0 0 0 0 0 0 0 0 0 0 0 0 0 0 0 0 0 0 0 0 0 0 0 0 0 0 0 0 0 0 0 0 0 0 0 0 0 0 0 0 0
0 0 0 0 0 0 0 0 0 0 0 0 0 0 0 0 0 0 0 0 0 0 0 0 0 0 0 0 0 0 0 0 0 0 0 0 0 0 0 0 0 0 0
Wind_Speed
14 17 27 27 27 26 26 26 25 24 22 19 16 15 15 15 15 14 13 13 12 11 11 10 11 10 10 9 8 6 5 4 3 3 3 4 3 2 3 2 2 1 8
12 12 23 26 28 27 27 26 25 25 25 24 22 19 18 16 15 14 14 14 13 12 11 11 11 11 11 10 9 7 6 5 4 3 4 5 6 5 5 4 0 3 6
10 10 17 24 25 26 26 26 26 26 25 25 24 23 22 19 17 15 14 14 14 13 12 12 12 11 11 11 10 9 8 7 6 4 5 5 7 10 8 6 3 3 5
8 7 14 22 23 25 25 26 26 25 25 25 24 24 23 22 21 18 15 14 15 15 14 13 13 12 11 11 11 11 10 8 7 6 5 7 7 11 9 7 6 5 5
8 7 14 23 23 24 26 26 26 26 26 25 25 25 24 23 22 21 19 17 16 14 14 13 14 13 12 11 11 12 12 9 8 7 7 7 3 10 10 9 7 6 5
11 10 13 23 24 24 25 25 25 25 25 25 25 25 24 23 23 22 21 20 18 16 15 14 14 14 12 12 12 12 13 11 8 6 7 7 4 10 10 9 8 7 7
11 11 14 24 26 26 25 26 25 25 25 25 24 26 26 24 22 22 21 21 21 20 18 16 15 14 13 13 13 12 12 10 8 6 6 5 4 11 10 10 9 9 9
12 12 14 23 27 27 26 26 26 25 26 26 25 26 26 24 23 23 22 22 21 22 21 18 16 15 15 14 14 12 10 9 9 9 7 5 6 10 10 9 10 10 10
13 13 14 14 18 24 27 26 27 25 25 26 25 26 26 25 24 23 24 24 24 23 22 20 18 17 16 15 14 12 10 10 6 5 7 5 8 10 10 9 9 11 12
12 13 14 15 15 15 16 24 27 27 26 26 25 25 25 23 23 23 23 24 25 25 24 22 20 19 17 16 15 12 10 8 6 6 5 6 10 12 11 9 10 11 12
14 13 12 14 14 14 14 19 19 21 22 23 19 24 19 10 11 13 21 24 26 26 26 24 25 22 18 14 15 15 10 4 6 5 5 9 12 13 11 9 9 11 11
15 14 12 12 12 12 13 11 9 11 11 12 11 13 9 9 10 15 20 23 25 25 24 26 27 23 15 8 10 12 5 7 7 6 7 12 13 13 12 10 9 10 12
12 12 13 12 11 11 9 9 6 7 7 9 11 12 10 9 9 9 8 11 12 15 11 16 16 12 12 9 8 7 6 7 5 5 7 15 14 13 12 11 11 12 13
11 13 13 13 12 11 10 8 8 7 7 8 9 12 10 8 9 10 9 9 8 7 9 9 9 13 14 14 12 10 8 7 5 4 4 15 14 13 13 13 13 14 15
12 13 13 13 13 12 9 9 10 9 9 10 8 9 11 9 9 10 10 9 10 8 9 10 10 12 13 14 13 12 10 10 8 6 4 13 15 14 15 16 16 16 16
12 13 13 13 13 13 10 9 7 8 9 9 8 10 12 11 10 10 10 10 9 10 10 9 11 11 11 12 15 16 13 9 9 9 7 10 15 15 16 16 17 18 18
12 13 13 14 14 15 13 11 9 8 10 7 8 9 12 11 11 12 11 10 11 12 12 10 11 9 11 12 14 16 15 13 10 9 7 5 8 14 16 17 17 18 19
11 12 12 13 13 14 12 10 9 9 10 8 7 8 12 12 12 11 10 10 13 13 12 12 10 11 11 10 11 12 12 13 16 12 7 5 4 7 13 17 17 19 19
11 11 11 11 12 13 12 10 9 9 9 9 7 6 9 10 11 10 10 9 10 10 10 12 12 11 12 12 12 11 10 11 13 15 12 8 5 5 6 13 18 18 19
9 10 11 12 12 12 9 8 7 8 8 8 8 8 10 9 11 9 10 13 12 9 9 11 12 11 11 12 14 13 12 11 12 12 13 10 6 7 6 7 8 12 17
9 11 12 12 12 11 9 10 9 9 9 8 7 11 11 11 12 9 9 11 12 10 11 14 13 13 11 10 11 12 11 10 12 11 11 10 8 7 6 8 7 6 8
9 10 11 11 12 11 9 9 8 10 9 8 8 9 10 10 10 11 11 9 11 10 11 12 13 10 9 10 10 10 8 8 6 9 8 9 10 7 7 8 8 8 6
9 10 12 11 11 11 11 8 9 8 8 7 8 7 8 10 10 8 10 9 9 9 9 12 12 12 10 9 8 7 7 7 12 11 10 10 9 6 6 6 8 9 8
8 7 9 10 10 9 10 9 11 10 10 11 9 8 10 10 11 8 8 9 9 9 11 12 12 12 11 9 7 6 7 9 8 9 12 10 12 11 9 6 7 8 8
7 7 7 9 8 9 9 9 9 8 8 9 9 10 9 9 10 10 9 8 9 8 10 12 13 13 10 9 8 7 7 8 10 9 14 15 10 9 9 10 6 5 7
7 7 7 8 9 9 9 9 8 9 10 11 11 10 10 8 8 9 12 9 9 7 9 11 12 14 12 11 9 8 7 7 8 8 10 15 15 12 12 9 8 5 4
Wind_Direction
339 340 346 8 18 21 23 22 19 16 9 2 358 356 355 354 351 349 345 344 343 341 339 336 331 328 325 323 320 317 309 306 304 305 287 281 266 200 158 176 287 204 133
315 343 356 13 19 20 21 21 21 21 19 14 7 359 352 348 344 341 340 338 336 335 336 335 329 321 315 311 306 300 285 276 276 270 265 257 243 220 190 189 335 126 141
326 7 3 16 21 21 21 22 21 19 17 15 13 7 1 353 344 337 336 333 329 328 327 327 326 320 310 304 296 287 274 261 259 255 256 252 225 215 200 189 176 153 141
338 29 14 15 21 21 20 20 19 18 17 15 12 8 5 1 357 350 343 339 331 325 323 322 318 313 306 297 288 279 270 259 253 253 252 246 216 204 197 189 187 187 167
357 30 22 17 18 20 20 18 17 14 13 12 11 9 5 2 2 0 354 348 340 330 322 319 312 307 304 297 285 274 267 259 247 249 263 268 183 174 188 188 190 190 176
14 17 21 19 15 15 17 14 14 13 11 10 9 6 4 4 4 4 2 357 350 341 328 316 311 304 304 302 290 275 266 257 246 239 252 257 176 174 185 187 188 184 171
15 12 14 15 13 10 11 10 7 8 8 6 8 6 2 359 1 2 2 2 355 346 337 324 314 308 306 304 296 283 269 257 243 248 257 271 205 171 184 189 191 186 178
17 13 10 11 10 6 3 7 3 3 5 1 3 5 1 358 358 360 0 358 353 348 343 331 317 308 303 300 297 291 278 260 248 240 245 259 238 184 193 203 201 194 190
21 15 12 7 7 3 357 1 360 358 3 359 359 1 359 358 358 357 358 354 351 348 344 337 323 309 300 297 296 293 283 261 248 252 252 238 221 207 206 214 216 202 196
23 16 14 5 5 1 351 357 357 354 359 357 356 358 359 356 356 354 356 350 349 347 342 338 336 321 307 297 291 288 279 268 243 242 241 233 212 210 214 218 216 205 199
19 14 13 5 1 0 351 354 353 350 355 354 351 353 355 351 351 351 350 350 350 346 344 346 344 336 321 298 281 266 258 239 235 229 222 225 211 209 212 218 214 206 202
11 9 9 2 357 360 353 351 347 347 349 347 346 345 349 351 352 354 345 349 349 344 349 347 342 339 335 315 295 274 249 236 238 225 212 210 209 212 213 216 219 217 212
7 5 5 359 355 360 352 349 346 343 343 342 344 346 352 353 349 349 342 343 341 343 349 344 342 335 327 320 307 299 270 259 244 232 201 188 195 207 217 220 223 224 221
7 5 3 359 355 356 352 348 347 343 343 342 344 349 357 356 348 347 341 336 336 340 344 343 332 326 327 322 312 299 281 264 253 253 198 174 184 203 223 231 230 229 226
6 3 2 356 356 354 351 352 349 344 346 343 343 349 5 358 348 347 336 335 333 342 343 332 325 327 328 322 318 314 297 285 268 241 224 186 187 200 221 234 235 234 230
4 3 360 355 358 353 351 351 345 345 343 340 342 352 11 359 349 343 334 334 337 343 333 327 327 327 325 325 324 322 315 298 285 264 239 202 195 199 214 226 233 236 235
4 2 0 356 358 352 347 350 350 347 339 337 343 352 11 359 350 342 336 336 344 340 333 333 328 332 331 329 325 323 320 316 303 282 260 225 197 205 212 220 226 234 237
7 1 2 357 355 349 344 353 349 346 339 336 343 353 3 352 349 341 336 342 345 339 337 336 340 338 330 325 322 317 315 313 312 305 286 264 215 198 211 218 221 227 234
12 359 357 356 356 349 347 352 343 343 338 335 340 355 356 347 344 342 332 341 340 336 339 336 336 334 331 328 321 312 312 312 310 310 301 279 258 222 192 208 215 221 227
13 1 355 357 355 348 349 345 338 342 337 333 341 351 350 347 342 340 332 337 337 334 336 330 326 331 331 329 327 322 313 307 304 297 294 285 263 242 213 197 201 220 223
10 5 354 357 353 350 352 344 342 341 336 331 342 345 346 346 339 337 337 337 334 332 332 330 330 329 330 329 329 323 302 285 269 275 276 274 261 246 226 210 199 196 212
11 6 353 356 351 350 350 340 340 333 327 329 339 337 338 339 339 340 342 340 336 331 327 329 328 324 327 337 328 321 318 309 346 307 292 272 255 237 233 222 204 202 199
13 8 353 350 350 349 347 341 340 328 330 335 335 332 335 337 332 337 341 335 330 330 327 326 326 329 326 326 330 329 324 334 330 306 313 324 323 281 238 225 212 204 204
14 7 352 346 346 346 344 342 341 339 335 332 331 328 332 333 327 335 337 334 331 331 327 326 331 323 322 322 323 313 306 308 300 312 311 314 319 319 307 267 221 204 200
15 6 350 341 342 343 342 339 336 332 327 325 326 329 330 327 327 334 336 332 329 326 327 325 325 320 316 311 308 303 298 297 286 287 293 302 313 312 316 311 290 220 197
12 0 345 341 343 343 341 336 336 330 329 328 332 330 328 325 328 333 334 330 323 324 327 323 321 316 313 308 305 301 297 292 294 289 286 295 301 305 311 306 306 276 217